Tracking 29606 objects as of 18-Sep-2024
HD Live streaming from Space Station
objects crossing your sky now

GONETS M 19

Track GONETS M 19 now!
10-day predictions


NORAD ID: 46488
Int'l Code: 2020-068C
Perigee: 1,490.9 km
Apogee: 1,512.1 km
Inclination: 82.5 °
Period: 115.9 minutes
Semi major axis: 7872 km
RCS: Unknown
Launch date: September 28, 2020
Source: Commonwealth of Independent States (former USSR) (CIS)
Launch site: PLESETSK MISSILE AND SPACE COMPLEX (PKMTR)
Your satellite tracking list
Your tracking list is empty




NASA's NSSDC Master Catalog

Two Line Element Set (TLE):
1 46488U 20068C   24261.84973233  .00000032  00000-0  15759-3 0  9995
2 46488  82.4997  23.6425 0013433   0.7841 359.3257 12.42891128180075
Source of the keplerian elements: AFSPC